Powrót do katalogu

ATLAS 5 CENTAUR DEB

LostHEO
NORAD 44010·DEBRIS·🇺🇸 United States

Wystrzelony Sep 17, 2014 z Cape Canaveral Space Force Station

Loading…

Następne Przeloty (najbliższe 24 godziny)

TLE

NieaktualneSource: Space-Track

Epoka: Jan 19, 2026, 00:01 UTC

1 44010U 14055BR  26019.00091767 -.00000020  00000-0  00000-0 0  9995
2 44010  19.4458 172.0099 4782506 112.9337 303.5206  1.82360788 48642

Śledź ATLAS 5 CENTAUR DEB w czasie rzeczywistym z AllMySat

Download on the App Store